Location: Unspecified
(38.9820°N, 94.4650°W)
Time: 22:39:06
(UTC-05:00)

Resurs 1-4 Rocket - Visible Passes

Search period start: 20 September 2018 00:00
Search period end: 30 September 2018 00:00
Orbit: 799 x 814 km, 98.5° (Epoch: 20 September)

Date Brightness Start Highest point End Pass type
(mag) Time Alt. Az. Time Alt. Az. Time Alt. Az.
20 Sep 4.3 03:42:28 10° N 03:43:49 18° N 03:43:49 18° N visible
21 Sep 4.6 03:17:46 10° NNE 03:18:50 16° NNE 03:18:50 16° NNE visible
22 Sep 4.9 02:53:18 10° NNE 02:53:50 13° NNE 02:53:50 13° NNE visible
22 Sep 4.4 04:34:16 10° NNW 04:34:55 12° NNW 04:34:55 12° NNW visible
23 Sep 4.4 04:08:58 10° N 04:09:55 15° NNW 04:09:55 15° NNW visible
24 Sep 4.5 03:44:00 10° N 03:44:56 15° N 03:44:56 15° N visible
25 Sep 4.7 03:19:17 10° NNE 03:19:57 14° NNE 03:19:57 14° NNE visible
26 Sep 5.0 02:54:47 10° NNE 02:54:57 11° NNE 02:54:57 11° NNE visible
26 Sep 4.5 04:35:51 10° NNW 04:36:02 11° NNW 04:36:02 11° NNW visible
27 Sep 4.5 04:10:30 10° N 04:11:03 13° NNW 04:11:03 13° NNW visible
28 Sep 4.7 03:45:31 10° N 03:46:03 13° N 03:46:03 13° N visible
29 Sep 4.9 03:20:47 10° NNE 03:21:04 12° N 03:21:04 12° N visible
